Location: Stockholm
(59.3333°N, 18.0500°E)
Time: 05:01:04
(UTC+01:00)

ISS - Pass Details

Date: 18 January 2025
Orbit: 416 x 420 km, 51.6° (Epoch: 12 December)

Event Time Altitude Azimuth Distance (km) Brightness Sun altitude
Rises 17:08:21 0° 220° (SW) 2,397 1.3 -11.3°
Reaches altitude 10° 17:11:04 10° 197° (SSW) 1,520 -0.4 -11.6°
Maximum altitude 17:13:11 16° 159° (SSE) 1,218 -1.4 -11.9°
Drops below altitude 10° 17:15:17 10° 121° (ESE) 1,508 -1.3 -12.1°
Enters shadow 17:15:19 10° 120° (ESE) 1,520 -1.3 -12.1°
